Location: Althorst
(53.6379°N, 10.7715°E)
Time: 22:51:22
(UTC+00:00)

Cosmos 1943 Rocket - Pass Details

Date: 10 December 2019
Orbit: 812 x 844 km, 71.0° (Epoch: 20 January)

Event Time Altitude Azimuth Distance (km) Brightness Sun altitude
Rises 19:38:14 0° 320° (NW) 3,407 6.0 -40.0°
Reaches altitude 10° 19:41:15 10° 305° (NW) 2,463 5.2 -40.5°
Enters shadow 19:44:35 20° 270° (W) 1,832 4.4 -40.9°
